{"data":{"norad_id":61979,"intl_designator":"2024-210W","name":"STARLINK-32578","alt_names":[],"object_type":"PAYLOAD","status":"ACTIVE","operator":null,"country":"US","launch_date":"2024-11-14","launch_site_code":"AFETR","launch_vehicle":null,"mission":null,"orbit_class":"UNKNOWN","rcs_meters":null,"size_class":null,"mass_kg":null,"dimensions":null,"purposes":["comms"],"wikipedia_slug":null,"has_3d_model":false,"image_url":null,"decayed_at":null,"tle_current":{"epoch":"2026-05-25T04:49:11.216064Z","epoch_age_seconds":68395,"freshness":"FRESH","line1":"1 61979U 24210W   26145.20082426  .00019060  00000+0  69995-3 0  9999","line2":"2 61979  43.0006 107.5316 0000855 277.9599  82.1156 15.27599299 86629","mean_motion":15.27599299,"eccentricity":8.55e-5,"inclination_deg":43.0006,"raan_deg":107.5316,"arg_perigee_deg":277.9599,"mean_anomaly_deg":82.1156,"bstar":0.00069995,"rev_number":8662,"period_min":94.2655577901,"perigee_km":482.40468202889,"apogee_km":483.57793496964,"semimajor_km":6861.1283084993,"source":"CELESTRAK","updated_at":"2026-05-25T13:38:19.517095Z"}}}